Tracking 19846 objects as of 19-Sep-2019
HD Live streaming from Space Station
objects crossing your sky now

SURCAL 150B

Track SURCAL 150B now!
10-day predictions
SURCAL 150B is classified as:


NORAD ID: 2909
Int'l Code: 1967-053J
Perigee: 692.5 km
Apogee: 699.2 km
Inclination: 69.9 °
Period: 98.5 minutes
Semi major axis: 7066 km
RCS: 0.061 m2 (small)
Launch date: May 31, 1967
Source: United States (US)
Launch site: AIR FORCE WESTERN TEST RANGE (AFWTR)
aabbcc
Your satellite tracking list
Your tracking list is empty




NASA's NSSDC Master Catalog

Two Line Element Set (TLE):
1  2909U 67053J   19261.89833312 +.00000543 +00000-0 +12327-3 0  9997
2  2909 069.9479 152.5918 0004757 343.0888 017.0093 14.61394935717059
Source of the keplerian elements: AFSPC